Location: Tambov
(52.7163°N, 41.4075°E)
Time: 15:40:50
(UTC+03:00)

N. Korean satellite - Visible Passes

Search period start: 08 March 2021 00:00
Search period end: 18 March 2021 00:00
Orbit: 451 x 502 km, 97.2° (Epoch: 07 March)

Date Brightness Start Highest point End Pass type
(mag) Time Alt. Az. Time Alt. Az. Time Alt. Az.
08 Mar 9.9 04:36:37 10° ENE 04:38:24 13° E 04:40:11 10° ESE visible
08 Mar 6.5 06:08:33 10° N 06:12:05 64° WNW 06:15:39 10° SSW visible
09 Mar 7.1 05:41:45 10° NNE 05:45:18 64° ESE 05:48:54 10° S visible
10 Mar 8.5 05:15:09 10° NNE 05:18:26 32° E 05:21:43 10° SSE visible
11 Mar 9.6 04:48:56 10° NE 04:51:27 18° E 04:53:59 10° SE visible
12 Mar 6.6 05:54:37 10° NNE 05:58:15 89° S 06:01:52 10° SSW visible
13 Mar 7.9 05:27:54 10° NNE 05:31:23 45° E 05:34:53 10° S visible
14 Mar 9.2 05:01:27 10° NE 05:04:26 24° E 05:07:27 10° SSE visible
15 Mar 9.9 04:35:33 10° ENE 04:37:24 13° E 04:39:14 10° ESE visible
16 Mar 7.2 05:40:40 10° NNE 05:44:16 63° ESE 05:47:54 10° S visible
17 Mar 8.6 05:14:02 10° NNE 05:17:21 32° E 05:20:41 10° SSE visible
